EN

Hourly Weather Luena

Today, 24 November, Tuesday

Time Temperature Precipitation Wind Pressure Humidity
00:00 +19°C° 0.6 mm 1 mps 647 mmHg 95%
01:00 +18°C° 0 mm 2 mps 647 mmHg 96%
02:00 +18°C° 0 mm 2 mps 647 mmHg 96%
03:00 +19°C° 0 mm 1 mps 647 mmHg 97%
04:00 +19°C° 0 mm 1 mps 646 mmHg 97%
05:00 +18°C° 0 mm 2 mps 647 mmHg 95%
06:00 +19°C° 0 mm 2 mps 648 mmHg 93%
07:00 +20°C° 0 mm 2 mps 649 mmHg 91%
08:00 +23°C° 1 mm 2 mps 649 mmHg 86%
09:00 +24°C° 1 mm 1 mps 649 mmHg 81%
10:00 +26°C° 1 mm 1 mps 649 mmHg 76%
11:00 +27°C° 1.3 mm 1 mps 649 mmHg 72%
12:00 +28°C° 1.3 mm 1 mps 648 mmHg 68%
13:00 +29°C° 1.3 mm 1 mps 648 mmHg 63%
14:00 +27°C° 1.3 mm 2 mps 647 mmHg 70%
15:00 +26°C° 1.3 mm 2 mps 647 mmHg 77%
16:00 +24°C° 1.3 mm 3 mps 646 mmHg 83%
17:00 +22°C° 3.5 mm 3 mps 646 mmHg 88%
18:00 +20°C° 3.5 mm 2 mps 647 mmHg 92%
19:00 +19°C° 3.5 mm 2 mps 647 mmHg 97%
20:00 +19°C° 0.1 mm 1 mps 647 mmHg 96%
21:00 +19°C° 0.1 mm 1 mps 647 mmHg 96%
22:00 +19°C° 0.1 mm 1 mps 647 mmHg 95%
23:00 +19°C° 0 mm 1 mps 647 mmHg 96%

Tomorrow, 25 November, Wednesday

Time Temperature Precipitation Wind Pressure Humidity
00:00 +19°C° 0 mm 1 mps 647 mmHg 97%
01:00 +19°C° 0 mm 1 mps 647 mmHg 97%
02:00 +18°C° 0 mm 1 mps 647 mmHg 98%
03:00 +18°C° 0 mm 1 mps 647 mmHg 98%
04:00 +18°C° 0 mm 1 mps 647 mmHg 98%
05:00 +19°C° 0 mm 1 mps 647 mmHg 96%
06:00 +20°C° 0 mm 1 mps 648 mmHg 94%
07:00 +21°C° 0 mm 1 mps 648 mmHg 91%
08:00 +23°C° 0 mm 1 mps 648 mmHg 83%
09:00 +25°C° 0 mm 1 mps 649 mmHg 75%
10:00 +27°C° 0 mm 2 mps 649 mmHg 67%
11:00 +27°C° 0.2 mm 2 mps 649 mmHg 66%
12:00 +28°C° 0.2 mm 2 mps 648 mmHg 65%
13:00 +28°C° 0.2 mm 2 mps 647 mmHg 64%
14:00 +27°C° 1.3 mm 1 mps 647 mmHg 69%
15:00 +27°C° 1.3 mm 1 mps 646 mmHg 75%
16:00 +26°C° 1.3 mm 1 mps 646 mmHg 80%
17:00 +24°C° 0.6 mm 1 mps 646 mmHg 84%
18:00 +23°C° 0.6 mm 1 mps 646 mmHg 88%
19:00 +21°C° 0.6 mm 1 mps 646 mmHg 92%
20:00 +21°C° 0.1 mm 1 mps 646 mmHg 92%
21:00 +20°C° 0.1 mm 1 mps 646 mmHg 93%
22:00 +20°C° 0.1 mm 1 mps 647 mmHg 93%
23:00 +20°C° 0 mm 1 mps 646 mmHg 93%

Day after tomorrow, 26 November, Thursday

Time Temperature Precipitation Wind Pressure Humidity
00:00 +19°C° 0 mm 1 mps 646 mmHg 93%
01:00 +17°C° 0 mm 0 mps 646 mmHg 93%
02:00 +19°C° 0 mm 1 mps 646 mmHg 94%
03:00 +19°C° 0 mm 1 mps 646 mmHg 94%
04:00 +19°C° 0 mm 1 mps 646 mmHg 95%
05:00 +20°C° 0 mm 1 mps 647 mmHg 93%
06:00 +21°C° 0 mm 1 mps 647 mmHg 91%
07:00 +22°C° 0 mm 1 mps 648 mmHg 89%
08:00 +23°C° 1.3 mm 1 mps 648 mmHg 85%
09:00 +25°C° 1.3 mm 1 mps 648 mmHg 80%
10:00 +26°C° 1.3 mm 1 mps 648 mmHg 75%
11:00 +27°C° 0.7 mm 1 mps 648 mmHg 69%
12:00 +28°C° 0.7 mm 1 mps 648 mmHg 63%
13:00 +29°C° 0.7 mm 1 mps 647 mmHg 57%
14:00 +29°C° 0 mm 1 mps 647 mmHg 58%
15:00 +29°C° 0 mm 1 mps 646 mmHg 58%
16:00 +29°C° 0 mm 1 mps 646 mmHg 59%
17:00 +26°C° 0.2 mm 1 mps 646 mmHg 66%
18:00 +22°C° 0.2 mm 0 mps 646 mmHg 72%
19:00 +20°C° 0.2 mm 0 mps 646 mmHg 79%
20:00 +21°C° 1.3 mm 1 mps 646 mmHg 85%
21:00 +20°C° 1.3 mm 1 mps 646 mmHg 90%
22:00 +19°C° 1.3 mm 1 mps 646 mmHg 96%
23:00 +19°C° 1.3 mm 1 mps 646 mmHg 96%

27 November, Friday

Time Temperature Precipitation Wind Pressure Humidity
00:00 +19°C° 1.3 mm 1 mps 646 mmHg 96%
01:00 +19°C° 1.3 mm 1 mps 646 mmHg 96%
02:00 +19°C° 0.2 mm 1 mps 646 mmHg 95%
03:00 +19°C° 0.2 mm 1 mps 646 mmHg 94%
04:00 +19°C° 0.2 mm 1 mps 646 mmHg 93%
05:00 +19°C° 0.4 mm 1 mps 647 mmHg 93%
06:00 +20°C° 0.4 mm 1 mps 647 mmHg 92%
07:00 +20°C° 0.4 mm 1 mps 648 mmHg 92%
08:00 +21°C° 1.1 mm 1 mps 648 mmHg 91%
09:00 +20°C° 1.1 mm 2 mps 648 mmHg 90%
10:00 +21°C° 1.1 mm 2 mps 648 mmHg 89%
11:00 +24°C° 0.6 mm 1 mps 648 mmHg 82%
12:00 +26°C° 0.6 mm 1 mps 648 mmHg 75%
13:00 +27°C° 0.6 mm 1 mps 647 mmHg 68%
14:00 +27°C° 1.3 mm 1 mps 647 mmHg 72%
15:00 +24°C° 1.3 mm 0 mps 646 mmHg 77%
16:00 +23°C° 1.3 mm 0 mps 646 mmHg 81%
17:00 +21°C° 0.1 mm 0 mps 646 mmHg 84%
18:00 +20°C° 0.1 mm 0 mps 646 mmHg 86%
19:00 +19°C° 0.1 mm 0 mps 646 mmHg 89%
20:00 +18°C° 0.1 mm 0 mps 646 mmHg 89%
21:00 +18°C° 0.1 mm 0 mps 647 mmHg 90%
22:00 +17°C° 0.1 mm 0 mps 647 mmHg 91%
23:00 +17°C° 0.5 mm 0 mps 647 mmHg 92%

28 November, Saturday

Time Temperature Precipitation Wind Pressure Humidity
00:00 +17°C° 0.5 mm 0 mps 646 mmHg 93%
01:00 +17°C° 0.5 mm 0 mps 646 mmHg 95%
02:00 +19°C° 0.3 mm 1 mps 646 mmHg 95%
03:00 +19°C° 0.3 mm 1 mps 646 mmHg 95%
04:00 +19°C° 0.3 mm 1 mps 646 mmHg 95%
05:00 +19°C° 0.1 mm 1 mps 647 mmHg 94%
06:00 +19°C° 0.1 mm 2 mps 647 mmHg 94%
07:00 +20°C° 0.1 mm 2 mps 648 mmHg 93%
08:00 +23°C° 0.7 mm 2 mps 648 mmHg 86%
09:00 +25°C° 0.7 mm 1 mps 649 mmHg 79%
10:00 +27°C° 0.7 mm 1 mps 649 mmHg 72%
11:00 +27°C° 0.6 mm 1 mps 648 mmHg 68%
12:00 +28°C° 0.6 mm 1 mps 648 mmHg 65%
13:00 +28°C° 0.6 mm 2 mps 647 mmHg 61%
14:00 +28°C° 0.2 mm 1 mps 647 mmHg 63%
15:00 +27°C° 0.2 mm 1 mps 646 mmHg 64%
16:00 +27°C° 0.2 mm 1 mps 646 mmHg 66%
17:00 +25°C° 0.1 mm 1 mps 646 mmHg 71%
18:00 +23°C° 0.1 mm 1 mps 646 mmHg 77%
19:00 +21°C° 0.1 mm 1 mps 646 mmHg 82%
20:00 +21°C° 0.1 mm 1 mps 646 mmHg 85%
21:00 +20°C° 0.1 mm 1 mps 647 mmHg 88%
22:00 +20°C° 0.1 mm 1 mps 647 mmHg 91%
23:00 +20°C° 1 mm 1 mps 647 mmHg 93%

29 November, Sunday

Time Temperature Precipitation Wind Pressure Humidity
00:00 +19°C° 1 mm 1 mps 647 mmHg 95%
01:00 +19°C° 1 mm 1 mps 646 mmHg 97%
02:00 +19°C° 0.4 mm 1 mps 647 mmHg 97%
03:00 +19°C° 0.4 mm 1 mps 647 mmHg 97%
04:00 +18°C° 0.4 mm 2 mps 647 mmHg 96%
05:00 +19°C° 0.3 mm 2 mps 647 mmHg 95%
06:00 +19°C° 0.3 mm 2 mps 647 mmHg 94%
07:00 +20°C° 0.3 mm 1 mps 648 mmHg 93%
08:00 +20°C° 0.5 mm 2 mps 648 mmHg 89%
09:00 +23°C° 0.5 mm 2 mps 649 mmHg 86%
10:00 +24°C° 0.5 mm 2 mps 649 mmHg 82%
11:00 +25°C° 0.5 mm 2 mps 648 mmHg 75%
12:00 +26°C° 0.5 mm 2 mps 648 mmHg 69%
13:00 +27°C° 0.5 mm 1 mps 647 mmHg 62%
14:00 +27°C° 0.1 mm 1 mps 647 mmHg 63%
15:00 +27°C° 0.1 mm 1 mps 647 mmHg 64%
16:00 +27°C° 0.1 mm 1 mps 646 mmHg 64%
17:00 +25°C° 1 mm 1 mps 646 mmHg 72%
18:00 +23°C° 1 mm 1 mps 646 mmHg 80%
19:00 +20°C° 1 mm 1 mps 646 mmHg 88%
20:00 +20°C° 0.8 mm 1 mps 646 mmHg 90%
21:00 +20°C° 0.8 mm 1 mps 646 mmHg 93%
22:00 +19°C° 0.8 mm 1 mps 647 mmHg 95%
23:00 +19°C° 0.5 mm 1 mps 647 mmHg 95%
Show more